Temperature
15 15 14 14 14 14 13 13 13 13 13 12 12 12 12 12 12 12 12 12 12 12 12 12 13 13 13 13 12 12 12 13 13 13 12 12 12 13 13 13 14 14 14
16 15 15 14 14 14 13 13 13 13 13 12 12 12 12 12 12 12 12 12 12 12 12 12 12 12 12 12 12 12 12 12 13 13 13 12 12 12 12 12 12 13 13
17 16 15 14 14 14 13 13 13 13 12 12 12 12 12 11 11 12 12 11 11 11 12 12 12 12 12 12 12 12 12 12 12 12 12 12 11 11 11 11 12 12 12
17 16 15 15 14 14 13 13 13 12 12 12 12 12 12 11 11 11 11 11 11 12 12 12 12 12 12 12 12 12 12 12 12 12 12 12 11 10 10 11 11 11 11
17 16 15 15 14 14 13 13 13 12 12 12 12 12 12 11 11 11 11 12 12 12 12 12 12 12 12 12 12 12 12 12 12 12 11 11 11 10 10 10 11 11 11
17 16 16 15 14 14 13 13 13 12 12 12 12 12 12 12 12 12 12 12 12 12 12 12 12 12 12 12 12 12 12 11 11 11 11 11 10 10 10 10 10 10 10
18 17 16 15 15 14 13 13 13 12 12 12 12 12 12 12 12 12 12 12 12 12 12 12 12 12 12 12 12 11 11 11 11 11 11 10 10 9 9 9 9 9 9
18 17 16 15 15 14 14 13 13 12 12 12 12 12 12 12 12 12 12 12 12 12 12 12 12 11 11 11 11 11 11 11 10 10 10 10 10 9 9 9 9 9 9
18 17 16 15 15 14 13 13 13 12 12 12 12 12 12 12 12 12 12 12 12 12 11 11 11 11 11 11 10 10 10 10 10 10 10 9 9 9 9 9 9 8 9
17 17 16 16 15 14 14 13 13 12 12 12 12 12 12 12 11 12 12 11 11 11 11 11 11 10 10 10 10 10 9 9 9 9 9 9 9 9 9 8 8 8 8
16 16 16 16 15 14 14 13 12 12 12 12 12 11 11 11 11 11 11 11 11 11 10 10 10 10 10 10 9 9 9 9 9 9 9 9 9 8 8 8 8 8 8
17 16 16 16 15 14 14 13 12 12 12 12 11 11 11 11 11 11 11 10 10 10 10 10 10 9 9 9 9 9 9 9 9 9 8 8 8 8 8 8 8 8 8
18 17 16 16 15 15 14 13 13 12 12 11 11 11 11 11 10 10 10 10 10 10 10 9 9 9 9 9 9 9 8 8 8 8 8 8 8 8 8 8 8 7 7
18 17 17 16 15 15 14 14 13 13 12 12 11 11 11 11 10 10 10 10 9 9 9 9 9 9 9 8 8 8 8 8 8 8 8 8 8 8 7 7 7 7 7
17 17 17 16 15 15 14 14 13 13 12 12 11 11 11 10 10 10 10 9 9 9 9 9 9 9 9 8 8 8 8 8 8 8 8 8 8 7 7 7 7 7 7
17 17 17 16 15 15 14 14 13 13 12 12 11 11 11 10 10 10 10 9 9 9 9 9 9 9 9 8 8 8 8 8 8 8 8 8 8 7 7 7 7 6 6
18 17 17 16 15 15 14 14 13 13 12 12 12 11 11 10 10 10 10 10 9 9 9 9 9 9 9 9 9 9 8 8 8 8 8 8 8 7 7 7 7 6 6
18 17 17 16 15 15 14 14 13 13 12 12 12 11 11 10 10 10 10 10 9 9 9 9 9 9 9 9 9 9 9 9 9 8 8 8 7 7 7 7 7 6 6
19 18 17 16 16 15 14 14 13 13 12 12 11 11 11 10 10 10 10 10 9 9 9 9 9 9 9 9 9 9 9 9 9 8 8 8 7 7 7 7 6 6 6
19 18 17 17 16 15 14 13 12 12 12 12 11 11 11 11 10 10 10 10 9 9 9 9 9 9 9 9 9 9 9 9 8 8 8 7 7 7 7 6 6 6 6
19 18 17 17 16 15 14 13 12 12 12 12 11 11 11 10 10 10 10 10 9 9 9 9 9 9 9 9 9 9 9 9 8 8 8 7 7 7 6 6 6 6 5
19 18 18 17 16 15 15 14 14 13 12 12 11 11 11 10 10 10 10 10 10 9 9 9 9 9 9 9 9 8 8 8 8 8 7 7 7 7 6 6 6 6 5
19 19 18 17 16 16 15 14 13 12 11 11 11 11 11 11 10 10 10 10 10 10 10 9 9 9 9 9 8 8 8 8 8 7 7 7 7 6 6 6 6 6 5
19 19 18 17 17 16 15 14 13 12 12 12 12 11 11 11 11 10 10 10 10 10 10 9 9 9 9 9 8 8 8 7 7 7 7 7 6 6 6 6 6 5 5
19 18 18 17 16 16 15 14 14 13 13 12 12 11 11 11 10 10 10 10 10 10 10 9 9 9 9 9 8 8 8 7 7 6 6 7 7 7 6 6 6 5 5
18 18 17 17 16 15 15 14 14 13 12 12 11 11 11 11 10 10 10 10 10 10 10 9 9 9 9 9 8 8 7 7 6 6 5 6 6 7 6 6 5 5 4
Wind_Speed
7 16 21 19 19 18 17 16 16 16 16 16 16 16 16 15 15 15 15 16 16 16 16 16 16 17 17 16 17 17 18 18 19 19 19 19 18 18 18 18 17 17 18
12 20 22 21 20 19 18 17 17 17 16 16 16 16 15 15 15 15 15 15 15 15 15 15 15 15 15 15 15 16 16 17 18 18 18 17 17 17 17 17 16 15 17
15 20 22 22 20 19 18 18 17 17 16 16 16 15 15 14 14 14 14 14 14 14 14 14 14 14 14 14 14 15 15 16 16 16 16 16 14 15 15 15 15 15 15
19 20 21 22 21 20 19 19 18 17 16 16 15 15 14 13 13 13 13 13 13 13 13 13 13 13 13 13 13 14 15 15 15 15 15 14 13 13 14 14 14 14 14
18 20 22 23 22 21 20 19 18 18 17 16 16 15 14 13 13 13 12 12 12 13 13 12 12 12 12 12 12 13 14 14 14 13 13 13 12 12 12 12 12 12 12
14 20 23 24 22 21 20 20 19 18 17 16 15 15 14 13 13 12 12 12 11 11 12 12 11 11 11 11 11 11 12 12 12 12 11 11 10 10 10 10 10 10 10
14 19 22 24 23 22 21 20 19 19 17 16 15 15 14 13 13 12 12 11 11 11 10 10 10 10 9 9 9 9 9 9 10 9 8 8 7 9 9 9 8 8 8
16 19 21 24 23 22 21 21 20 19 18 17 16 15 14 13 13 12 11 11 10 10 9 9 9 8 7 7 7 7 7 7 6 6 5 5 6 7 8 8 7 7 6
16 16 18 21 22 22 22 21 20 19 18 17 16 15 14 13 12 11 11 10 9 8 8 7 7 6 5 5 5 5 6 6 5 2 2 2 4 6 7 7 7 7 7
12 12 14 17 19 20 20 21 20 19 18 17 16 16 14 13 12 11 10 9 8 7 6 5 5 4 3 3 3 4 5 5 3 1 2 1 2 5 6 7 7 7 7
13 11 12 14 16 18 18 20 20 20 19 18 17 16 15 13 12 11 10 9 7 6 5 3 2 1 1 2 4 5 5 4 2 2 4 3 2 4 6 7 8 8 8
17 15 12 13 15 17 17 17 17 17 18 17 16 16 15 14 12 11 11 9 8 6 4 3 2 1 2 4 5 5 5 4 2 3 5 5 3 5 7 8 8 9 9
18 17 15 14 16 16 13 15 14 15 16 17 18 17 16 13 11 11 10 9 7 6 4 3 3 3 4 5 5 6 5 4 4 4 5 5 4 5 7 8 8 9 9
16 18 16 15 15 16 15 14 14 13 13 14 17 18 15 11 10 10 9 9 8 7 6 5 4 4 5 5 5 5 5 5 4 4 4 5 5 5 7 8 8 8 9
17 18 18 17 16 15 13 13 13 13 14 15 16 17 16 11 8 9 9 9 9 8 7 5 4 4 4 4 4 3 4 4 3 3 3 4 4 5 5 7 7 8 9
17 19 18 19 18 16 13 11 12 15 16 16 16 17 18 15 12 9 8 8 8 9 8 6 4 3 2 2 2 3 3 4 3 3 3 3 3 3 4 5 7 7 8
18 18 19 20 18 17 15 14 14 15 16 15 16 18 18 16 14 11 7 6 8 9 7 5 3 2 1 1 2 3 3 4 4 3 2 2 1 1 2 4 5 6 8
16 18 19 18 19 18 15 14 13 15 16 15 16 17 18 18 16 12 7 6 9 8 6 3 1 1 0 1 2 3 3 4 4 3 2 1 1 1 1 2 4 5 7
18 19 19 19 20 19 16 14 12 14 14 15 16 16 18 18 17 13 9 8 10 7 4 3 2 2 1 2 3 3 3 3 3 2 0 1 2 2 1 1 3 4 6
16 18 19 19 19 18 13 10 9 9 10 13 14 16 17 17 17 14 9 9 9 5 3 3 2 1 1 1 2 3 3 3 2 1 0 1 1 1 1 1 2 4 5
14 16 18 18 18 16 14 13 12 11 10 9 10 15 17 17 17 14 8 8 7 5 5 4 3 2 1 0 2 3 4 4 3 2 2 2 2 2 2 2 3 4 5
15 17 18 19 19 18 16 14 10 9 7 8 8 12 17 17 17 14 10 7 7 5 5 5 4 3 1 1 2 1 3 4 3 3 2 1 1 3 3 4 5 5 5
15 17 17 19 18 18 15 10 7 5 4 5 8 9 11 16 16 14 13 10 8 7 6 6 5 5 3 1 2 3 2 3 3 4 3 2 2 2 3 5 6 7 7
15 14 15 17 17 16 16 15 15 12 10 10 8 8 9 13 15 15 14 12 9 7 7 6 6 4 5 3 1 1 2 4 2 3 4 3 4 3 4 4 6 8 8
12 12 13 14 15 15 17 18 17 12 9 6 7 9 9 9 12 14 14 12 9 7 7 7 6 5 4 5 4 2 1 1 2 3 4 4 4 4 4 5 6 6 7
8 10 11 14 14 15 16 17 17 15 12 11 10 11 9 7 7 10 12 11 9 8 8 7 7 7 6 5 4 4 4 3 3 4 5 5 5 4 4 4 4 4 5
Wind_Direction
169 170 163 157 152 145 138 132 127 123 119 114 108 103 100 97 95 93 91 89 85 83 82 79 77 77 77 76 75 73 71 70 68 65 65 65 65 63 61 60 56 51 53
156 165 161 158 154 149 142 136 130 125 120 116 112 107 103 100 97 94 91 89 87 84 83 81 79 79 79 78 77 75 71 75 73 68 61 57 62 63 61 58 58 56 54
150 160 159 157 154 150 145 139 132 128 124 120 116 112 108 105 101 97 94 91 89 87 85 84 83 81 80 80 79 76 72 76 76 71 59 46 52 63 61 59 57 56 54
152 156 158 158 155 151 147 143 138 133 129 124 121 117 114 111 107 103 100 98 94 91 90 88 86 84 83 82 80 76 74 77 79 70 55 44 44 61 60 58 56 55 53
151 156 159 159 156 153 150 147 144 140 134 129 127 124 120 117 113 109 106 103 99 96 94 92 88 86 85 83 79 75 77 80 79 69 56 43 38 59 60 57 54 52 51
151 157 161 160 158 156 154 151 148 145 140 136 133 130 127 123 119 116 112 109 105 101 97 94 91 87 85 83 79 75 75 80 80 72 57 42 33 53 57 55 53 50 48
154 159 164 163 161 159 157 155 152 149 145 142 140 136 133 129 125 122 119 115 111 107 102 97 93 89 85 82 79 74 72 77 81 77 63 42 35 46 46 44 43 41 40
157 160 166 166 164 162 161 159 157 154 151 149 146 142 139 136 132 130 126 122 117 111 105 99 95 89 85 80 75 69 66 70 81 87 76 47 38 36 34 31 26 21 23
158 160 165 167 166 165 163 162 161 159 156 154 152 148 145 143 141 138 135 131 125 118 111 104 97 90 80 70 61 49 42 49 75 110 118 58 29 25 21 17 10 3 2
159 162 164 165 166 166 166 166 165 164 162 161 157 153 151 151 149 147 145 142 137 132 126 117 106 89 65 39 19 7 10 24 42 140 188 219 12 9 6 1 354 348 345
167 170 166 164 165 165 166 169 167 166 166 164 161 158 155 154 155 155 157 157 154 151 147 140 131 102 355 327 323 325 338 351 356 216 216 232 319 352 353 349 343 339 339
177 178 173 169 166 165 170 169 168 167 168 165 164 163 163 163 165 167 172 174 173 174 180 192 219 267 299 300 303 310 308 313 291 245 237 240 282 331 341 342 339 337 336
179 178 178 174 171 169 169 168 168 166 167 168 169 170 171 171 174 177 181 185 189 194 208 237 262 278 281 281 283 287 289 295 278 257 256 254 277 316 333 340 340 338 338
178 183 180 177 174 174 171 172 171 170 172 175 178 176 174 174 177 181 185 191 197 205 217 239 254 275 278 277 276 282 293 296 293 275 273 268 283 311 329 338 341 344 346
183 185 182 180 179 177 173 175 178 178 180 182 183 184 181 178 181 184 191 194 201 208 215 230 248 272 284 288 293 298 309 313 304 286 284 286 291 310 328 337 344 352 352
190 188 184 183 182 178 179 180 181 183 184 184 188 189 187 183 182 181 188 195 203 209 213 213 224 238 260 282 307 318 314 325 321 305 291 293 299 316 335 342 351 353 353
195 189 186 186 183 182 182 182 182 184 184 187 192 192 190 188 185 183 184 191 201 205 203 200 214 227 266 316 324 322 323 323 317 308 294 284 293 314 357 358 359 355 352
194 190 189 187 185 186 185 183 183 184 186 190 191 192 192 191 188 184 184 194 195 191 187 177 176 174 317 326 309 307 318 317 313 303 284 227 172 141 10 5 359 352 348
196 191 189 187 186 187 185 183 182 183 187 190 190 192 194 192 189 186 188 190 184 177 176 172 163 161 215 292 292 301 317 312 310 319 315 156 153 151 136 348 344 340 338
196 191 189 187 186 184 181 177 177 181 187 189 191 193 191 192 190 187 185 183 176 165 171 170 165 146 174 251 305 326 325 321 340 20 82 92 116 120 72 359 345 337 332
192 189 188 186 184 179 181 182 184 190 189 190 193 192 191 190 188 184 179 177 174 175 181 176 158 152 174 71 41 347 338 352 20 23 32 53 50 47 37 4 338 322 317
190 189 188 187 184 183 186 186 187 181 183 188 188 190 191 188 187 186 179 179 177 173 175 176 163 153 158 114 121 68 351 343 343 357 356 17 18 29 13 347 330 319 310
192 190 190 189 186 185 179 170 155 145 146 174 190 193 192 189 187 185 183 177 178 178 184 185 174 165 175 178 143 146 150 245 301 321 335 346 343 348 339 330 320 313 306
197 191 188 187 185 183 176 176 175 182 189 192 187 188 187 188 186 185 181 179 180 181 182 185 178 169 159 176 181 163 171 166 186 301 312 316 322 309 303 307 305 305 304
191 186 185 182 183 181 181 182 184 189 187 171 170 179 186 187 186 183 180 179 181 183 183 178 173 172 171 174 176 169 160 145 168 194 275 302 311 284 274 278 286 295 304
183 179 178 178 183 182 183 184 188 186 177 171 178 185 188 188 188 185 181 181 182 181 183 184 181 177 181 178 179 175 171 176 194 193 233 269 289 285 279 272 268 278 296
Height
1535 1538 1540 1542 1544 1545 1547 1547 1548 1549 1549 1549 1549 1550 1550 1550 1550 1550 1550 1550 1550 1550 1550 1550 1550 1549 1549 1549 1548 1548 1548 1548 1547 1547 1547 1546 1546 1545 1545 1544 1544 1544 1544
1534 1537 1540 1542 1544 1545 1547 1548 1548 1549 1549 1550 1550 1550 1550 1550 1551 1551 1551 1551 1551 1551 1550 1550 1550 1550 1549 1549 1549 1549 1549 1548 1548 1548 1547 1547 1546 1546 1545 1545 1544 1544 1544
1534 1536 1539 1542 1543 1545 1546 1548 1548 1549 1550 1550 1550 1550 1551 1551 1551 1551 1551 1551 1551 1551 1551 1551 1550 1550 1550 1550 1550 1550 1550 1549 1549 1549 1548 1548 1547 1547 1546 1545 1545 1544 1544
1534 1536 1539 1541 1543 1545 1546 1547 1548 1549 1550 1550 1550 1551 1551 1551 1551 1551 1551 1552 1552 1551 1551 1551 1551 1551 1551 1551 1551 1551 1551 1550 1550 1550 1549 1549 1548 1548 1547 1546 1546 1545 1544
1534 1536 1538 1541 1542 1544 1546 1547 1548 1549 1550 1550 1551 1551 1551 1551 1552 1552 1552 1552 1552 1552 1552 1552 1552 1552 1552 1552 1552 1552 1552 1551 1551 1551 1550 1550 1549 1549 1548 1547 1546 1546 1545
1533 1536 1538 1540 1542 1544 1545 1547 1548 1549 1550 1550 1551 1551 1552 1552 1552 1552 1552 1552 1553 1553 1553 1553 1553 1553 1553 1553 1553 1553 1553 1553 1552 1552 1552 1551 1550 1550 1549 1548 1547 1547 1546
1533 1535 1538 1540 1542 1543 1545 1546 1548 1549 1549 1550 1551 1551 1552 1552 1552 1552 1553 1553 1553 1553 1554 1554 1554 1554 1554 1554 1554 1554 1554 1553 1553 1553 1553 1552 1551 1551 1550 1549 1548 1548 1547
1532 1535 1537 1539 1541 1543 1544 1546 1547 1548 1549 1550 1551 1551 1552 1552 1553 1553 1553 1554 1554 1554 1554 1555 1555 1555 1555 1555 1555 1555 1554 1554 1554 1554 1553 1553 1552 1552 1551 1550 1549 1548 1547
1532 1534 1536 1538 1540 1542 1544 1545 1547 1548 1549 1550 1551 1551 1552 1553 1553 1553 1554 1554 1554 1555 1555 1555 1555 1556 1555 1555 1555 1555 1555 1555 1554 1554 1553 1553 1552 1552 1551 1550 1549 1548 1547
1532 1533 1535 1537 1539 1541 1543 1544 1546 1547 1549 1550 1551 1551 1552 1553 1553 1554 1554 1554 1555 1555 1555 1556 1556 1556 1556 1556 1556 1555 1555 1555 1554 1554 1553 1552 1552 1551 1550 1549 1548 1547 1547
1530 1532 1534 1535 1537 1539 1541 1543 1545 1546 1548 1549 1550 1551 1552 1552 1553 1554 1554 1555 1555 1555 1556 1556 1556 1556 1556 1556 1556 1556 1555 1555 1554 1553 1553 1552 1551 1551 1550 1548 1547 1546 1546
1526 1529 1531 1533 1535 1538 1540 1541 1543 1545 1546 1548 1549 1550 1551 1552 1553 1553 1554 1554 1555 1555 1556 1556 1556 1556 1556 1556 1556 1555 1555 1554 1553 1553 1552 1551 1550 1550 1549 1547 1546 1545 1544
1523 1526 1528 1531 1533 1535 1537 1539 1541 1543 1544 1546 1547 1549 1550 1551 1552 1553 1553 1554 1555 1555 1555 1556 1556 1556 1556 1555 1555 1554 1554 1553 1552 1552 1551 1550 1549 1548 1547 1546 1545 1544 1542
1520 1522 1525 1528 1530 1532 1535 1537 1539 1540 1542 1544 1546 1547 1548 1550 1551 1552 1553 1553 1554 1555 1555 1555 1555 1555 1555 1554 1554 1554 1553 1552 1551 1551 1550 1549 1548 1547 1546 1545 1543 1542 1541
1517 1519 1522 1524 1527 1529 1532 1534 1536 1538 1540 1542 1544 1545 1547 1548 1549 1551 1552 1553 1553 1554 1554 1554 1554 1554 1554 1553 1553 1553 1552 1551 1550 1549 1548 1547 1546 1545 1544 1543 1542 1540 1539
1513 1515 1518 1520 1523 1526 1528 1531 1533 1536 1538 1540 1542 1543 1545 1547 1548 1549 1550 1551 1552 1553 1553 1553 1553 1553 1553 1552 1552 1551 1550 1549 1548 1547 1546 1545 1544 1543 1542 1541 1540 1538 1537
1508 1511 1513 1516 1519 1522 1525 1527 1530 1533 1535 1537 1539 1541 1543 1545 1546 1548 1549 1550 1551 1551 1552 1552 1552 1552 1551 1551 1550 1550 1549 1547 1546 1545 1544 1543 1542 1541 1540 1539 1538 1536 1535
1504 1506 1509 1512 1514 1517 1520 1524 1527 1530 1532 1535 1537 1539 1541 1543 1545 1546 1547 1548 1549 1550 1550 1550 1550 1550 1550 1549 1549 1548 1547 1545 1544 1543 1542 1541 1540 1539 1538 1537 1536 1534 1533
1499 1501 1504 1506 1509 1513 1516 1520 1523 1526 1529 1531 1534 1536 1538 1540 1542 1544 1545 1546 1547 1548 1548 1548 1548 1548 1548 1547 1547 1546 1544 1543 1542 1541 1540 1540 1539 1538 1536 1535 1534 1532 1531
1493 1495 1498 1501 1504 1508 1512 1516 1519 1522 1525 1528 1530 1533 1535 1537 1539 1541 1543 1544 1545 1546 1546 1546 1546 1546 1545 1545 1544 1543 1542 1541 1540 1539 1539 1538 1537 1536 1535 1533 1532 1530 1529
1487 1489 1492 1495 1499 1503 1506 1510 1513 1516 1520 1523 1526 1529 1532 1534 1536 1538 1540 1541 1542 1543 1544 1544 1544 1544 1543 1543 1542 1541 1540 1539 1538 1538 1537 1536 1535 1534 1533 1531 1530 1528 1526
1480 1483 1486 1489 1493 1496 1500 1504 1508 1512 1516 1519 1523 1525 1528 1531 1533 1535 1536 1538 1539 1540 1541 1541 1542 1541 1541 1541 1540 1539 1538 1538 1536 1536 1535 1534 1533 1532 1531 1529 1527 1525 1523
1474 1477 1480 1483 1487 1491 1496 1501 1505 1509 1513 1515 1518 1520 1524 1526 1529 1531 1533 1535 1536 1537 1538 1538 1539 1539 1538 1538 1538 1538 1537 1535 1535 1533 1533 1532 1531 1530 1528 1526 1524 1522 1520
1468 1471 1475 1478 1482 1486 1491 1494 1498 1501 1504 1507 1511 1516 1519 1522 1525 1527 1529 1531 1532 1534 1534 1535 1536 1536 1536 1535 1535 1535 1535 1534 1533 1531 1530 1529 1528 1527 1525 1523 1521 1519 1517
1463 1466 1470 1473 1477 1481 1485 1489 1492 1496 1500 1504 1508 1512 1515 1518 1521 1523 1525 1527 1528 1530 1531 1532 1532 1533 1533 1532 1532 1531 1531 1530 1530 1529 1526 1525 1524 1523 1521 1519 1517 1516 1513
1458 1461 1465 1468 1472 1476 1480 1484 1487 1491 1495 1499 1503 1506 1510 1513 1516 1518 1521 1523 1524 1526 1527 1528 1529 1529 1529 1529 1529 1528 1527 1527 1526 1525 1523 1521 1519 1518 1517 1515 1513 1511 1509